Time,TemperatureF,DewpointF,PressureIn,WindDirection,WindDirectionDegrees,WindSpeedMPH,WindSpeedGustMPH,Humidity,HourlyPrecipIn,Conditions,Clouds,dailyrainin,SoftwareType,DateUTC
2013-02-24 00:00:00,50.2,31.0,30.09,NNW,341,10.0,13.0,48,0.00,,,0.00,,2013-02-24 08:00:00,
2013-02-24 00:10:00,50.3,31.0,30.09,NW,308,11.0,15.0,47,0.00,,,0.00,,2013-02-24 08:10:00,
2013-02-24 00:20:00,50.3,31.0,30.09,West,261,13.0,13.0,47,0.00,,,0.00,,2013-02-24 08:20:00,
2013-02-24 00:30:00,50.6,30.0,30.10,WNW,286,7.0,13.0,45,0.00,,,0.00,,2013-02-24 08:30:00,
2013-02-24 00:40:00,51.0,29.0,30.10,West,271,8.0,14.0,43,0.00,,,0.00,,2013-02-24 08:40:00,
2013-02-24 00:50:00,50.5,29.0,30.10,NW,325,10.0,12.0,43,0.00,,,0.00,,2013-02-24 08:50:00,
2013-02-24 01:00:00,50.5,29.0,30.10,NNE,19,7.0,21.0,43,0.00,,,0.00,,2013-02-24 09:00:00,
2013-02-24 01:10:00,50.1,28.0,30.10,NE,41,10.0,13.0,43,0.00,,,0.00,,2013-02-24 09:10:00,
2013-02-24 01:20:00,50.6,28.0,30.10,NE,39,8.0,9.0,42,0.00,,,0.00,,2013-02-24 09:20:00,
2013-02-24 01:30:00,50.3,28.0,30.10,NNW,335,5.0,9.0,42,0.00,,,0.00,,2013-02-24 09:30:00,
2013-02-24 01:40:00,50.9,27.0,30.10,NNE,12,13.0,20.0,40,0.00,,,0.00,,2013-02-24 09:40:00,
2013-02-24 01:50:00,50.5,27.0,30.10,NNE,15,17.0,17.0,40,0.00,,,0.00,,2013-02-24 09:50:00,
2013-02-24 02:00:00,50.6,27.0,30.10,North,5,14.0,14.0,40,0.00,,,0.00,,2013-02-24 10:00:00,
2013-02-24 02:10:00,50.8,27.0,30.09,NE,34,17.0,22.0,40,0.00,,,0.00,,2013-02-24 10:10:00,
2013-02-24 02:20:00,50.1,27.0,30.09,North,9,13.0,14.0,41,0.00,,,0.00,,2013-02-24 10:20:00,
2013-02-24 02:30:00,50.2,27.0,30.09,NNE,15,10.0,14.0,41,0.00,,,0.00,,2013-02-24 10:30:00,
2013-02-24 02:40:00,50.0,28.0,30.09,NNE,22,9.0,13.0,42,0.00,,,0.00,,2013-02-24 10:40:00,
2013-02-24 02:50:00,49.6,27.0,30.09,NNE,20,8.0,11.0,42,0.00,,,0.00,,2013-02-24 10:50:00,
2013-02-24 03:00:00,49.8,28.0,30.08,NNE,26,12.0,14.0,42,0.00,,,0.00,,2013-02-24 11:00:00,
2013-02-24 03:10:00,50.0,28.0,30.08,NE,43,14.0,18.0,42,0.00,,,0.00,,2013-02-24 11:10:00,
2013-02-24 03:20:00,50.0,28.0,30.08,North,5,10.0,18.0,42,0.00,,,0.00,,2013-02-24 11:20:00,
2013-02-24 03:30:00,50.0,27.0,30.07,NNE,12,10.0,18.0,41,0.00,,,0.00,,2013-02-24 11:30:00,
2013-02-24 03:40:00,50.5,27.0,30.07,NNE,19,14.0,18.0,40,0.00,,,0.00,,2013-02-24 11:40:00,
2013-02-24 03:50:00,50.3,25.0,30.07,NE,42,21.0,29.0,37,0.00,,,0.00,,2013-02-24 11:50:00,
2013-02-24 04:00:00,50.2,27.0,30.08,North,355,13.0,18.0,40,0.00,,,0.00,,2013-02-24 12:00:00,
2013-02-24 04:10:00,49.9,27.0,30.08,NW,310,12.0,17.0,41,0.00,,,0.00,,2013-02-24 12:10:00,
2013-02-24 04:20:00,49.4,27.0,30.08,NNW,343,6.0,17.0,41,0.00,,,0.00,,2013-02-24 12:20:00,
2013-02-24 04:30:00,49.4,27.0,30.08,NW,315,1.0,4.0,41,0.00,,,0.00,,2013-02-24 12:30:00,
2013-02-24 04:40:00,49.3,27.0,30.09,NW,311,1.0,5.0,41,0.00,,,0.00,,2013-02-24 12:40:00,
2013-02-24 04:50:00,49.2,26.0,30.09,NNW,333,3.0,5.0,41,0.00,,,0.00,,2013-02-24 12:50:00,
2013-02-24 05:00:00,49.3,25.0,30.09,NW,317,0.0,8.0,39,0.00,,,0.00,,2013-02-24 13:00:00,
2013-02-24 05:10:00,49.8,26.0,30.10,North,11,0.0,9.0,39,0.00,,,0.00,,2013-02-24 13:10:00,
2013-02-24 05:20:00,49.8,25.0,30.10,NW,325,1.0,10.0,37,0.00,,,0.00,,2013-02-24 13:20:00,
2013-02-24 05:30:00,50.0,24.0,30.10,ENE,67,2.0,9.0,36,0.00,,,0.00,,2013-02-24 13:30:00,
2013-02-24 05:40:00,50.1,23.0,30.11,NNW,348,3.0,8.0,35,0.00,,,0.00,,2013-02-24 13:40:00,
2013-02-24 05:50:00,49.9,23.0,30.11,NNW,348,2.0,3.0,35,0.00,,,0.00,,2013-02-24 13:50:00,
2013-02-24 06:00:00,50.0,23.0,30.11,NNE,19,4.0,4.0,34,0.00,,,0.00,,2013-02-24 14:00:00,
2013-02-24 06:10:00,49.4,24.0,30.11,NNE,33,3.0,7.0,36,0.00,,,0.00,,2013-02-24 14:10:00,
2013-02-24 06:20:00,49.4,24.0,30.11,ENE,76,3.0,7.0,36,0.00,,,0.00,,2013-02-24 14:20:00,
2013-02-24 06:30:00,47.8,26.0,30.11,East,94,5.0,9.0,42,0.00,,,0.00,,2013-02-24 14:30:00,
2013-02-24 06:40:00,46.5,25.0,30.11,ENE,74,3.0,5.0,42,0.00,,,0.00,,2013-02-24 14:40:00,
2013-02-24 06:50:00,46.5,24.0,30.11,ENE,74,0.0,2.0,41,0.00,,,0.00,,2013-02-24 14:50:00,
2013-02-24 07:00:00,47.4,24.0,30.12,SSE,163,0.0,1.0,40,0.00,,,0.00,,2013-02-24 15:00:00,
2013-02-24 07:10:00,48.5,24.0,30.12,NNE,33,4.0,5.0,38,0.00,,,0.00,,2013-02-24 15:10:00,
2013-02-24 07:20:00,49.0,24.0,30.12,NE,41,4.0,4.0,37,0.00,,,0.00,,2013-02-24 15:20:00,
2013-02-24 07:30:00,49.3,23.0,30.13,NNW,330,5.0,6.0,36,0.00,,,0.00,,2013-02-24 15:30:00,
2013-02-24 07:40:00,49.7,24.0,30.13,NNE,16,3.0,6.0,36,0.00,,,0.00,,2013-02-24 15:40:00,
2013-02-24 07:50:00,50.5,23.0,30.13,North,351,3.0,7.0,34,0.00,,,0.00,,2013-02-24 15:50:00,
2013-02-24 08:00:00,50.8,24.0,30.14,NNW,337,4.0,9.0,35,0.00,,,0.00,,2013-02-24 16:00:00,
2013-02-24 08:10:00,51.3,24.0,30.14,NNE,26,5.0,5.0,34,0.00,,,0.00,,2013-02-24 16:10:00,
2013-02-24 08:20:00,51.5,24.0,30.14,NNE,28,0.0,6.0,34,0.00,,,0.00,,2013-02-24 16:20:00,
2013-02-24 08:30:00,52.3,25.0,30.14,NNE,27,4.0,5.0,34,0.00,,,0.00,,2013-02-24 16:30:00,
2013-02-24 08:40:00,52.8,24.0,30.14,NNE,21,3.0,5.0,32,0.00,,,0.00,,2013-02-24 16:40:00,
2013-02-24 08:50:00,53.8,26.0,30.14,NNE,21,2.0,3.0,34,0.00,,,0.00,,2013-02-24 16:50:00,
2013-02-24 09:00:00,53.5,26.0,30.15,NW,323,5.0,9.0,34,0.00,,,0.00,,2013-02-24 17:00:00,
2013-02-24 09:10:00,53.4,26.0,30.15,NNE,13,5.0,7.0,34,0.00,,,0.00,,2013-02-24 17:10:00,
2013-02-24 09:20:00,54.1,25.0,30.15,NNE,12,7.0,9.0,32,0.00,,,0.00,,2013-02-24 17:20:00,
2013-02-24 09:30:00,54.7,25.0,30.15,North,355,6.0,11.0,32,0.00,,,0.00,,2013-02-24 17:30:00,
2013-02-24 09:40:00,55.0,24.0,30.15,NE,51,8.0,13.0,30,0.00,,,0.00,,2013-02-24 17:40:00,
2013-02-24 09:50:00,55.1,24.0,30.16,NNE,13,6.0,13.0,30,0.00,,,0.00,,2013-02-24 17:50:00,
2013-02-24 10:00:00,55.3,27.0,30.16,North,11,7.0,13.0,34,0.00,,,0.00,,2013-02-24 18:00:00,
2013-02-24 10:10:00,55.6,26.0,30.16,NE,39,13.0,13.0,32,0.00,,,0.00,,2013-02-24 18:10:00,
2013-02-24 10:20:00,55.9,26.0,30.16,NNE,21,8.0,12.0,31,0.00,,,0.00,,2013-02-24 18:20:00,
2013-02-24 10:30:00,56.4,28.0,30.16,ENE,64,4.0,10.0,34,0.00,,,0.00,,2013-02-24 18:30:00,
2013-02-24 10:40:00,56.2,27.0,30.16,NE,46,6.0,11.0,32,0.00,,,0.00,,2013-02-24 18:40:00,
2013-02-24 10:50:00,56.6,28.0,30.16,ENE,63,3.0,7.0,33,0.00,,,0.00,,2013-02-24 18:50:00,
2013-02-24 11:00:00,57.2,28.0,30.16,NE,53,5.0,10.0,32,0.00,,,0.00,,2013-02-24 19:00:00,
2013-02-24 11:10:00,57.6,30.0,30.15,NE,56,5.0,8.0,35,0.00,,,0.00,,2013-02-24 19:10:00,
2013-02-24 11:20:00,57.5,29.0,30.15,NE,51,3.0,7.0,33,0.00,,,0.00,,2013-02-24 19:20:00,
2013-02-24 11:30:00,57.7,29.0,30.15,East,86,7.0,9.0,33,0.00,,,0.00,,2013-02-24 19:30:00,
2013-02-24 11:40:00,58.3,31.0,30.14,NE,45,5.0,11.0,35,0.00,,,0.00,,2013-02-24 19:40:00,
2013-02-24 11:50:00,58.5,29.0,30.14,ENE,64,7.0,11.0,33,0.00,,,0.00,,2013-02-24 19:50:00,
2013-02-24 12:00:00,58.8,29.0,30.14,ENE,59,5.0,10.0,32,0.00,,,0.00,,2013-02-24 20:00:00,
2013-02-24 12:10:00,59.2,37.0,30.13,East,98,7.0,7.0,44,0.00,,,0.00,,2013-02-24 20:10:00,
2013-02-24 12:20:00,57.6,38.0,30.13,ESE,121,1.0,8.0,48,0.00,,,0.00,,2013-02-24 20:20:00,
2013-02-24 12:30:00,59.1,32.0,30.12,ESE,118,4.0,7.0,36,0.00,,,0.00,,2013-02-24 20:30:00,
2013-02-24 12:40:00,60.0,28.0,30.12,ENE,70,7.0,13.0,29,0.00,,,0.00,,2013-02-24 20:40:00,
2013-02-24 12:50:00,58.0,41.0,30.11,SW,229,4.0,8.0,53,0.00,,,0.00,,2013-02-24 20:50:00,
2013-02-24 13:00:00,57.8,43.0,30.11,NW,305,9.0,9.0,58,0.00,,,0.00,,2013-02-24 21:00:00,
2013-02-24 13:10:00,55.5,41.0,30.11,West,259,10.0,16.0,59,0.00,,,0.00,,2013-02-24 21:10:00,
2013-02-24 13:20:00,55.6,42.0,30.11,West,267,10.0,13.0,60,0.00,,,0.00,,2013-02-24 21:20:00,
2013-02-24 13:30:00,55.3,38.0,30.10,West,263,11.0,16.0,53,0.00,,,0.00,,2013-02-24 21:30:00,
2013-02-24 13:40:00,54.6,41.0,30.10,WSW,255,10.0,15.0,59,0.00,,,0.00,,2013-02-24 21:40:00,
2013-02-24 13:50:00,55.1,43.0,30.10,West,274,13.0,18.0,64,0.00,,,0.00,,2013-02-24 21:50:00,
2013-02-24 14:00:00,55.2,42.0,30.10,West,280,9.0,13.0,61,0.00,,,0.00,,2013-02-24 22:00:00,
2013-02-24 14:10:00,55.3,42.0,30.09,West,280,11.0,14.0,60,0.00,,,0.00,,2013-02-24 22:10:00,
2013-02-24 14:20:00,54.7,39.0,30.09,West,278,7.0,15.0,56,0.00,,,0.00,,2013-02-24 22:20:00,
2013-02-24 14:30:00,55.1,40.0,30.09,WNW,300,14.0,14.0,57,0.00,,,0.00,,2013-02-24 22:30:00,
2013-02-24 14:40:00,55.3,38.0,30.10,NW,323,10.0,13.0,53,0.00,,,0.00,,2013-02-24 22:40:00,
2013-02-24 14:50:00,55.5,38.0,30.10,NW,311,10.0,15.0,52,0.00,,,0.00,,2013-02-24 22:50:00,
2013-02-24 15:00:00,54.6,33.0,30.10,NW,313,12.0,15.0,44,0.00,,,0.00,,2013-02-24 23:00:00,
2013-02-24 15:10:00,55.2,36.0,30.10,NW,322,11.0,16.0,49,0.00,,,0.00,,2013-02-24 23:10:00,
2013-02-24 15:20:00,55.3,33.0,30.10,NW,314,14.0,15.0,43,0.00,,,0.00,,2013-02-24 23:20:00,
2013-02-24 15:30:00,55.4,33.0,30.10,NW,307,16.0,16.0,42,0.00,,,0.00,,2013-02-24 23:30:00,
2013-02-24 15:40:00,55.3,32.0,30.10,NW,313,10.0,14.0,41,0.00,,,0.00,,2013-02-24 23:40:00,
2013-02-24 15:50:00,55.1,31.0,30.10,NW,306,11.0,15.0,39,0.00,,,0.00,,2013-02-24 23:50:00,
2013-02-24 16:00:00,55.0,30.0,30.10,NW,322,10.0,16.0,39,0.00,,,0.00,,2013-02-25 00:00:00,
2013-02-24 16:10:00,54.6,28.0,30.10,NW,317,10.0,17.0,36,0.00,,,0.00,,2013-02-25 00:10:00,
2013-02-24 16:20:00,54.8,28.0,30.10,WNW,292,14.0,14.0,36,0.00,,,0.00,,2013-02-25 00:20:00,
2013-02-24 16:30:00,54.9,29.0,30.10,WNW,288,11.0,12.0,37,0.00,,,0.00,,2013-02-25 00:30:00,
2013-02-24 16:40:00,54.6,28.0,30.10,NW,306,8.0,13.0,36,0.00,,,0.00,,2013-02-25 00:40:00,
2013-02-24 16:50:00,54.6,29.0,30.10,NW,311,11.0,13.0,37,0.00,,,0.00,,2013-02-25 00:50:00,
2013-02-24 17:00:00,54.5,28.0,30.10,NW,323,7.0,12.0,36,0.00,,,0.00,,2013-02-25 01:00:00,
2013-02-24 17:10:00,54.3,28.0,30.09,NW,313,9.0,13.0,36,0.00,,,0.00,,2013-02-25 01:10:00,
2013-02-24 17:20:00,54.1,27.0,30.10,NW,315,11.0,12.0,35,0.00,,,0.00,,2013-02-25 01:20:00,
2013-02-24 17:30:00,53.7,27.0,30.10,NW,315,7.0,11.0,35,0.00,,,0.00,,2013-02-25 01:30:00,
2013-02-24 17:40:00,53.4,25.0,30.11,NW,311,10.0,12.0,33,0.00,,,0.00,,2013-02-25 01:40:00,
2013-02-24 17:50:00,53.0,25.0,30.11,NW,317,9.0,11.0,33,0.00,,,0.00,,2013-02-25 01:50:00,
2013-02-24 18:00:00,52.8,24.0,30.11,NW,317,10.0,13.0,32,0.00,,,0.00,,2013-02-25 02:00:00,
2013-02-24 18:10:00,52.5,23.0,30.12,NW,326,12.0,13.0,32,0.00,,,0.00,,2013-02-25 02:10:00,
2013-02-24 18:20:00,52.5,23.0,30.12,NNW,335,7.0,10.0,32,0.00,,,0.00,,2013-02-25 02:20:00,
2013-02-24 18:30:00,52.0,24.0,30.12,NNW,336,5.0,8.0,33,0.00,,,0.00,,2013-02-25 02:30:00,
2013-02-24 18:40:00,52.0,23.0,30.13,NNW,329,7.0,9.0,32,0.00,,,0.00,,2013-02-25 02:40:00,
2013-02-24 18:50:00,51.8,24.0,30.13,NNW,344,5.0,8.0,33,0.00,,,0.00,,2013-02-25 02:50:00,
2013-02-24 19:00:00,51.7,24.0,30.14,NNW,340,7.0,7.0,34,0.00,,,0.00,,2013-02-25 03:00:00,
2013-02-24 19:10:00,51.3,24.0,30.14,NNW,340,5.0,6.0,34,0.00,,,0.00,,2013-02-25 03:10:00,
2013-02-24 19:20:00,51.3,23.0,30.14,NNW,340,3.0,3.0,33,0.00,,,0.00,,2013-02-25 03:20:00,
2013-02-24 19:30:00,51.5,23.0,30.14,NNW,340,2.0,3.0,32,0.00,,,0.00,,2013-02-25 03:30:00,
2013-02-24 19:40:00,51.4,22.0,30.15,NNW,340,2.0,3.0,32,0.00,,,0.00,,2013-02-25 03:40:00,
2013-02-24 19:50:00,51.3,23.0,30.15,NNW,340,2.0,3.0,33,0.00,,,0.00,,2013-02-25 03:50:00,
2013-02-24 20:00:00,51.2,25.0,30.15,NNW,340,0.0,2.0,36,0.00,,,0.00,,2013-02-25 04:00:00,
2013-02-24 20:10:00,50.9,24.0,30.15,NNW,340,0.0,0.0,35,0.00,,,0.00,,2013-02-25 04:10:00,
2013-02-24 20:20:00,50.7,24.0,30.15,NNW,340,0.0,0.0,35,0.00,,,0.00,,2013-02-25 04:20:00,
2013-02-24 20:30:00,50.6,23.0,30.16,NNW,340,0.0,0.0,33,0.00,,,0.00,,2013-02-25 04:30:00,
2013-02-24 20:40:00,50.9,22.0,30.16,NNW,340,0.0,0.0,32,0.00,,,0.00,,2013-02-25 04:40:00,
2013-02-24 20:50:00,50.8,23.0,30.17,NNW,340,0.0,0.0,33,0.00,,,0.00,,2013-02-25 04:50:00,
2013-02-24 21:00:00,50.9,23.0,30.17,NNW,340,0.0,0.0,33,0.00,,,0.00,,2013-02-25 05:00:00,
2013-02-24 21:10:00,50.5,22.0,30.18,NNW,340,0.0,0.0,33,0.00,,,0.00,,2013-02-25 05:10:00,
2013-02-24 21:20:00,50.6,23.0,30.18,NNW,340,0.0,0.0,34,0.00,,,0.00,,2013-02-25 05:20:00,
2013-02-24 21:30:00,50.5,27.0,30.19,NNW,340,0.0,0.0,40,0.00,,,0.00,,2013-02-25 05:30:00,
2013-02-24 21:40:00,50.3,26.0,30.19,NNW,340,0.0,0.0,39,0.00,,,0.00,,2013-02-25 05:40:00,
2013-02-24 21:50:00,50.6,25.0,30.19,NNW,342,0.0,2.0,37,0.00,,,0.00,,2013-02-25 05:50:00,
2013-02-24 22:00:00,50.2,27.0,30.19,NNW,342,0.0,2.0,41,0.00,,,0.00,,2013-02-25 06:00:00,
2013-02-24 22:10:00,49.4,29.0,30.20,NNW,342,0.0,0.0,45,0.00,,,0.00,,2013-02-25 06:10:00,
2013-02-24 22:20:00,49.0,29.0,30.20,NNW,342,1.0,2.0,46,0.00,,,0.00,,2013-02-25 06:20:00,
2013-02-24 22:30:00,48.8,28.0,30.19,NNW,342,0.0,1.0,45,0.00,,,0.00,,2013-02-25 06:30:00,
2013-02-24 22:40:00,48.9,30.0,30.20,NNW,342,0.0,0.0,47,0.00,,,0.00,,2013-02-25 06:40:00,
2013-02-24 22:50:00,48.8,30.0,30.20,NNW,342,0.0,1.0,49,0.00,,,0.00,,2013-02-25 06:50:00,
2013-02-24 23:00:00,48.9,31.0,30.20,NNW,341,1.0,3.0,49,0.00,,,0.00,,2013-02-25 07:00:00,
2013-02-24 23:10:00,48.6,32.0,30.20,NNW,342,0.0,2.0,52,0.00,,,0.00,,2013-02-25 07:10:00,
2013-02-24 23:20:00,48.3,32.0,30.20,NNW,342,0.0,1.0,53,0.00,,,0.00,,2013-02-25 07:20:00,
2013-02-24 23:30:00,48.4,32.0,30.20,NNW,342,2.0,4.0,53,0.00,,,0.00,,2013-02-25 07:30:00,
2013-02-24 23:40:00,48.3,32.0,30.20,SE,138,5.0,6.0,53,0.00,,,0.00,,2013-02-25 07:40:00,
2013-02-24 23:50:00,49.9,32.0,30.21,SSE,150,0.0,5.0,50,0.00,,,0.00,,2013-02-25 07:50:00,